www.pogodaiklimat.ru
ПОГОДА в Бартсвилле
Время
(UTC), дата
11:53 20.11
12:53 20.11
13:53 20.11
14:53 20.11
15:53 20.11
16:46 20.11
16:53 20.11
17:53 20.11
18:53 20.11
19:53 20.11
20:15 20.11
20:53 20.11
21:17 20.11
21:24 20.11
21:53 20.11
22:53 20.11
23:53 20.11
00:53 20.11
01:45 20.11
01:53 20.11
02:00 20.11
02:18 20.11
02:27 20.11
02:34 20.11
02:53 20.11
03:53 20.11
04:09 20.11
04:53 20.11
05:53 21.11
06:22 21.11
06:53 21.11
07:53 21.11
08:53 21.11
09:53 21.11
10:53 21.11
11:33 21.11
11:40 21.11
11:53 21.11
12:02 21.11
12:53 21.11
13:53 21.11
14:50 21.11
14:53 21.11
15:53 21.11
16:24 21.11
16:53 21.11
17:53 21.11
18:00 21.11
Ветер
(напр.,м/с)
Видим. Явления Облачность Т
(С)
Тd
(С)
f
(%)
Тe
(С)
Тes
(С)
Комфортность P
(гПа)
Po
(гПа)
Тmin
(С)
Tmax
(С)
R
(мм)
R24
(мм)
S
(см)
Ю 4 16 км ясно +11.7 +5.0 63 +10 +10 1012.4 987.0
Ю 6 16 км ясно +12.8 +6.7 66 +10 +10 1012.7 987.3
Ю 6 16 км ясно +14.4 +8.3 67 +12 +12 1012.2 986.6
Ю 8
{13}
16 км ясно +16.1 +11.1 72 +14 +15 1012.0 986.6
Ю 10
{13}
16 км ясно +16.7 +12.2 75 +15 +15 1011.9 986.6
Ю 8
{13}
16 км 8/8 660 м +18.3 +13.3 73 +18 +18 986.0
Ю 8
{12}
16 км 8/8 660 м +17.8 +13.3 75 +17 +17 1011.1 985.6 +10.6 +18.3
Ю 7 16 км 10/10 660 м +18.3 +13.3 73 +18 +18 1009.8 984.6
Ю 5 16 км 10/10 690 м +18.9 +13.9 73 +19 +19 1009.8 984.6
Ю 8
{11}
16 км 10/10 870 м +19.4 +14.4 73 +20 +20 1009.7 984.6
Ю 6
{13}
16 км 10/5 900 м
[средняя]
+18.9 +14.4 75 +19 +19 984.6
Ю 6
{10}
16 км 10/10 960 м +19.4 +14.4 73 +20 +20 1011.2 986.0
Ю 3
{8}
13 км слабый дождь 10/10 870 м +17.8 +15.0 84 +18 +18 986.0
Ю 3 14 км слабый дождь 10/10 990 м +17.8 +15.0 84 +18 +18 986.0
ЮВ 3 14 км слабый дождь 10/10 1080 м +17.2 +15.0 87 +17 +17 1011.0 985.6
Ю 4 16 км 10/8 870 м
[средняя]
+16.7 +15.0 90 +16 +16 1011.2 986.0 +16.7 +19.4
ЮВ 7
{10}
11 км слабый дождь 10/5 810 м
[средняя]
+16.7 +15.0 90 +15 +15 1010.3 985.0
ЮВ 7
{11}
16 км 10/10 960 м +17.8 +15.0 84 +17 +17 1010.0 985.0
Ю 3
{8}
4 км сильный дождь, дымка 10/10 450 м +16.7 +15.6 93 +16 +16 986.0
Ю 5 3 км сильный дождь, дымка 10/10 390 м +16.7 +15.6 93 +16 +16 1011.0 986.0
Ю 6
{9}
5 км дождь, дымка 10/10 420 м +16.7 +15.6 93 +15 +15 985.6
Ю 5 10 км слабый дождь, дымка 10/10 240 м +16.1 +15.6 97 +15 +15 985.3
Ю 5 14 км 10/10 300 м +16.1 +15.0 93 +15 +15 985.3
Ю 4 14 км 10/10 300 м +16.7 +15.0 90 +16 +16 985.3
Ю 4 16 км 10/10 690 м +16.7 +15.0 90 +16 +16 1010.4 985.3
Ю 7
{11}
16 км 10/10 480 м +16.7 +15.0 90 +15 +15 1010.2 985.0
Ю 5
{10}
16 км 10/10 420 м +16.7 +15.0 90 +16 +16 985.3
Ю 4 16 км 10/10 360 м +16.7 +15.0 90 +16 +16 1010.3 985.3 +16.1 +17.8
Ю 3 16 км 10/10 390 м +16.7 +15.6 93 +16 +16 1010.3 985.3
Ю 6
{8}
16 км 10/10 450 м +17.2 +15.6 90 +16 +16 985.0
Ю 6
{10}
16 км 10/10 510 м +17.8 +16.1 90 +17 +17 1009.8 984.6
Ю 4 16 км 10/10 540 м +18.9 +16.7 87 +20 +20 1010.0 985.0
Ю 5 16 км 10/10 570 м +18.9 +16.7 87 +20 +20 1010.1 985.3
ЮЗ 4 16 км 10/10 540 м +18.9 +16.7 87 +20 +20 1011.1 986.0
нст 1 16 км 10/10 540 м +18.9 +16.7 87 +21 +21 комфорт 1011.9 986.6 +16.7 +18.9 8.9
нст 3 16 км 10/10 390 м +13.9 +11.7 87 +13 +13 987.9
нст 2 16 км 10/10 420 м +13.3 +11.1 87 +12 +12 988.3
СЗ 4 16 км 10/10 420 м +12.2 +9.4 83 +10 +10 1014.2 988.9
СЗ 3 16 км 10/10 480 м +11.1 +7.8 80 +9 +9 989.3
нст 3 16 км 10/10 480 м +10.0 +6.7 80 +8 +8 1015.9 990.6
С 4
{8}
16 км 10/10 660 м +10.0 +6.1 77 +7 +7 1016.9 991.6
С 4
{9}
16 км 10/10 750 м +10.0 +6.0 76 +7 +7 991.9
С 4
{9}
16 км 10/10 750 м +10.0 +5.6 74 +7 +7 1017.4 991.9
С 4 16 км 10/10 570 м +10.6 +6.1 74 +8 +8 1017.6 992.2
нст 1 16 км 10/10 570 м +10.6 +5.6 71 +10 +10 992.2
С 3 16 км 10/10 600 м +10.6 +5.6 71 +8 +8 1017.1 991.6 +9.4 +18.9
нст 2 16 км 10/10 810 м +10.6 +5.0 68 +9 +9 1016.5 991.2
нст 1 16 км 10/10 810 м +10.6 +5.0 68 +10 +10 991.2
Местоположение метеостанции Bartlesville Municipal Airport: широта 36.7683 долгота -96.0261 высота над уровнем моря 217 м.
В архиве по умолчанию представлена погода в Бартсвилле за последние 1-2 суток. Обновление информации о фактической погоде в базе происходит ежечасно! Архивные данные за месяц целиком и за предыдущие месяцы Вы можете получить, выбрав интересующий диапазон дат из раскрывающегося списка и нажав кнопку "Ввод!".
Внимание! Архив погоды МЕТАР в базе сайта по станциям, не включенным в климатический монитор, хранится не более 60 дней. Нет смысла пытаться выбрать более раннюю дату.
*Определитесь, кто Вы:
Внимание! Время в таблицах - всемирное. Для получения местного времени необходимо прибавить поправку, которая равна ч.
Смотрите также архив погоды в соседних городах и на ближайших метеорологических станциях:
Партнеры нашего сайта:      
Пояснения к столбцам:
  • Ветер - указаны скорость ветра в м/с - средняя за 10 мин, порывы в срок и между сроками (в фигурных скобках) и направление, откуда дует ветер: С - северный,
  • СВ - северо-восточный, В - восточный, ЮВ - юго-восточный, Ю - южный, ЮЗ - юго-западный, З - западный, СЗ - северо-западный.
  • Видимость - горизонтальная дальность видимости в метрах или километрах. При видимости от 1 до 10 км при отсутствии осадков обычно наблюдается дымка, при ухудшении видимости до 1 км и менее - туман. В сухую погоду видимость может ухудшаться дымом, пылью или мглою.
  • Явления - указаны атмосферные явления, наблюдавшиеся в срок или в последний час перед сроком; фигурными скобками обозначены явления, наблюдавшиеся между сроками (за 1-3 часа до срока); квадратными скобками обозначены град или гололедные отложения с указанием их диаметра в мм.
  • Облачность - указаны через наклонную черту общая и нижняя облачность в баллах и высота нижней границы облаков в метрах; квадратными скобками обозначены формы облаков: Ci - перистые, Cs - перисто-слоистые, Cc - перисто-кучевые, Ac - высококучевые, As - высокослоистые, Sc - слоисто-кучевые, Ns - слоисто-дождевые, Cu - кучевые, Cb - кучево-дождевые. Подробнее классификацию облаков см. в Атласе облаков (PDF).
  • T - Температура воздуха - температура, измеренная на высоте 2 м над землей.
  • Td - Температура точки росы - температура, при понижении до которой содержащийся в воздухе водяной пар достигнет насыщения.
  • f - Относительная влажность воздуха - влажноcть воздуха, измеренная на высоте 2 м над землей.
  • Te - Эффективная температура - температура, которую ощущает одетый по сезону человек в тени. Характеристика душности погоды. При расчете учитывается влияние влажности воздуха и скорости ветра на теплоощущения человека.
  • Tes - Эффективная температура на солнце - температура, которую ощущает человек, с поправкой на солнечный нагрев. Характеристика знойности погоды. Зависит от высоты солнца над горизонтом, облачности и скорости ветра. Ночью, в пасмурную погоду, а также при ветре 12 м/с и более поправка равна нулю.
  • P - Атмосферное давление - приведенное к уровню моря атмосферное давление.
  • Po - Атмосферное давление - измеренное на уровне метеостанции атмосферное давление.
  • Tmin - Минимальная температура - минимум температуры воздуха на высоте 2 м над землей.
  • Tmax - Максимальная температура - максимум температуры воздуха на высоте 2 м над землей.
  • R - Количество осадков - Количество выпавших осадков за период времени, мм. При наведении курсора мыши на число - период времени, за который выпало указанное количество осадков.
  • R24 - Количество осадков - Количество выпавших осадков за 24 часа, мм.
  • S - Снежный покров - Высота снежного покрова, см. При наведении курсора мыши на число - состояние снежного покрова и степень покрытия местности в баллах.